[[{"header":{"parameterUnit":"m.s-1","parameterCategory":1,"la1":30.2991,"la2":30.254,"lo1":-89.0895,"lo2":-89.0444,"dy":0.0017,"dx":0.0017,"nx":28,"ny":28,"refTime":"2025-11-22T03:00:00:Z","depth":0,"parameterNumber":2,"parameterNumberName":"U-component_of_WINDS"},"data":[0,0,0,0,0,0,0,0,0,0,0,0,0,0,0,0,0,0,0,0,0,0,0,0,0,0,0,0,0,0,0,0,0,0,0,0,0,0,0,0,0,0,0,0,0,0,0,0,0,0,0,0,0,0,0,0,0,0,1.3711,1.3712,0,1.3737,1.3737,1.3737,1.3748,1.3748,1.3748,1.3748,1.3773,1.3774,1.3774,0,0,0,0,0,0,0,0,0,0,0,0,0,1.3674,1.3674,1.3711,1.3712,1.3712,1.3737,1.3737,1.3737,1.3748,1.3748,1.3748,1.3748,1.3773,1.3774,1.3775,0,0,0,0,0,0,0,0,0,0,0,0,0,1.3693,1.3674,1.3711,1.372,1.3721,1.3737,1.3737,1.3737,1.3748,1.3748,1.3748,1.3748,1.3773,1.3774,1.3775,1.3782,0,0,1.3778,1.3778,0,0,0,0,0,0,0,0,1.3692,1.3695,1.3719,1.372,1.3721,1.3739,1.3733,1.3752,1.3748,1.3738,1.3748,1.3748,1.3762,1.3764,1.3769,1.3784,1.3785,1.3778,1.3779,1.3779,1.3779,0,0,0,0,0,0,0,1.3691,1.3694,1.3721,1.3719,1.372,1.3724,1.3726,1.3737,1.375,1.3739,1.374,1.3743,1.3762,1.3768,1.3769,1.3785,1.3778,1.3779,1.378,1.378,1.3811,1.3811,0,0,0,0,0,0,1.3688,1.3693,1.372,1.3722,1.3706,1.3724,1.3727,1.3733,1.375,1.3752,1.3743,1.3743,1.3766,1.3768,1.377,1.3782,1.3779,1.378,1.3781,1.3811,1.3811,1.3811,0,0,0,0,0,0,1.3687,1.369,1.3719,1.3708,1.3712,1.3725,1.3732,1.3734,1.3739,1.3753,1.3755,1.3745,1.3766,1.3769,1.378,1.3783,1.3781,1.3782,1.3811,1.3811,1.3811,1.3805,0,0,0,0,0,0,1.3686,1.369,1.3693,1.3708,1.3712,1.3728,1.3732,1.3734,1.3741,1.3742,1.3756,1.3758,1.3766,1.3778,1.3781,1.3785,1.3782,1.381,1.3811,1.3811,1.3805,1.3806,1.3806,0,0,0,0,0,1.3685,1.3689,1.3693,1.3696,1.3716,1.3729,1.3731,1.374,1.3741,1.3744,1.3754,1.3758,1.3783,1.3779,1.3783,1.3787,1.381,1.3811,1.3811,1.3805,1.3806,1.3806,0,0,0,0,0,0,1.3673,1.3691,1.3695,1.3705,1.3715,1.373,1.3734,1.374,1.375,1.375,1.3761,1.3764,1.3775,1.3782,1.3778,1.3797,1.3797,1.3798,1.3792,1.3792,1.3792,1.379,1.3783,0,0,0,0,0,1.3672,1.3681,1.3696,1.3703,1.3708,1.3721,1.3726,1.3733,1.3744,1.3748,1.3758,1.3769,1.3779,1.3786,1.3796,1.3807,1.3811,1.3811,1.3811,1.3811,1.3812,1.3821,1.3822,1.3813,1.3813,1.3813,0,0,1.3669,1.368,1.3685,1.3701,1.371,1.372,1.3724,1.3733,1.3741,1.3749,1.3761,1.3769,1.3782,1.3794,1.3799,1.38,1.3816,1.3812,1.3812,1.3813,1.3821,1.3822,1.3823,1.3813,1.3813,1.3813,0,0,1.3669,1.3677,1.3685,1.3695,1.3709,1.3717,1.3719,1.3734,1.374,1.3753,1.376,1.377,1.3787,1.3796,1.3803,1.381,1.3815,1.3813,1.3814,1.3822,1.3823,1.3824,1.3828,1.3829,1.3814,1.3814,1.3814,0,1.3663,1.3678,1.3688,1.3699,1.3706,1.3716,1.3725,1.3733,1.3749,1.3755,1.3756,1.3779,1.3788,1.3804,1.3806,1.3811,1.3815,1.3812,1.3822,1.3823,1.3824,1.3828,1.3829,1.3814,1.3814,1.3814,1.3814,0,1.3672,1.3682,1.3687,1.3704,1.3712,1.3721,1.3734,1.3741,1.3748,1.3757,1.3771,1.3782,1.3796,1.3801,1.3806,1.3818,1.3818,1.382,1.3821,1.3824,1.3829,1.383,1.3814,1.3814,1.3814,1.3814,0,0,1.3663,1.3688,1.369,1.3699,1.3716,1.3725,1.3735,1.375,1.3757,1.3768,1.3778,1.3794,1.3798,1.3806,1.3813,1.382,1.3828,1.3822,1.3822,1.3824,1.3843,1.3842,1.3844,1.3831,1.3831,1.3832,1.3843,0,1.3667,1.3686,1.3697,1.3712,1.3723,1.3734,1.3744,1.3756,1.3765,1.3776,1.3787,1.3798,1.3801,1.3806,1.3814,1.3825,1.3832,1.3824,1.3842,1.3842,1.3839,1.3846,1.3844,1.3854,1.3844,1.3845,1.3845,0,1.3672,1.3685,1.3702,1.3721,1.3726,1.3734,1.375,1.376,1.3775,1.3782,1.3792,1.38,1.3813,1.3813,1.3832,1.3827,1.3835,1.3842,1.3842,1.3845,1.3844,1.385,1.3857,1.3859,1.3847,1.3847,1.3847,0,1.3667,1.3688,1.3702,1.3709,1.3731,1.3737,1.3746,1.3761,1.377,1.3784,1.379,1.3805,1.3813,1.3825,1.3838,1.3836,1.3856,1.3857,1.3863,1.3863,1.3867,1.3867,1.3877,1.3871,1.3871,1.387,1.387,0,1.3669,1.368,1.37,1.3708,1.3721,1.3734,1.3746,1.3756,1.377,1.3782,1.3791,1.3802,1.3817,1.383,1.384,1.3855,1.3858,1.3865,1.3868,1.3865,1.3864,1.387,1.387,1.3871,1.3871,1.3871,1.3871,0,1.3665,1.3679,1.3694,1.3715,1.372,1.3729,1.3746,1.3756,1.3766,1.3781,1.3785,1.3802,1.3818,1.3831,1.3852,1.3859,1.3875,1.3878,1.387,1.3872,1.3878,1.3878,1.3894,1.3897,1.3888,1.3888,1.3888,0,1.3666,1.3674,1.3696,1.3705,1.3715,1.3728,1.3738,1.3752,1.3762,1.3782,1.3789,1.3806,1.382,1.3846,1.386,1.3877,1.388,1.3885,1.3883,1.388,1.3882,1.3882,1.3884,1.3885,1.3885,1.3885,1.3885,0,1.3667,1.3674,1.3688,1.3705,1.3717,1.3731,1.3745,1.3752,1.3769,1.378,1.3797,1.3809,1.3831,1.3848,1.3867,1.3877,1.3885,1.3886,1.3888,1.3886,1.3882,1.3886,1.3872,1.3885,1.3885,1.3885,1.3885,1.3885,1.3666,1.3675,1.3693,1.3709,1.3722,1.3736,1.3746,1.3759,1.3774,1.3793,1.3801,1.3819,1.3837,1.3863,1.3873,1.3888,1.3889,1.3893,1.3894,1.3895,1.3895,1.3879,1.3892,1.3892,1.3892,1.3892,1.3892,0,1.3669,1.3682,1.3697,1.3717,1.373,1.3737,1.3754,1.3764,1.378,1.3796,1.3811,1.3832,1.3849,1.3866,1.3885,1.3894,1.3898,1.3898,1.3898,1.3901,1.3892,1.3889,1.3895,1.3895,1.3895,1.3895,1.3895,1.3895,1.3672,1.3689,1.3699,1.3722,1.3735,1.3753,1.3762,1.3776,1.3789,1.3812,1.3827,1.3838,1.3855,1.3876,1.3893,1.3898,1.3905,1.3905,1.3911,1.3902,1.3901,1.3901,1.3898,1.3906,1.3906,1.3918,1.3919,1.3919]},{"header":{"parameterUnit":"m.s-1","parameterCategory":1,"la1":30.2991,"la2":30.254,"lo1":-89.0895,"lo2":-89.0444,"dy":0.0017,"dx":0.0017,"nx":28,"ny":28,"refTime":"2025-11-22T03:00:00:Z","depth":0,"parameterNumber":3,"parameterNumberName":"V-component_of_WINDS"},"data":[0,0,0,0,0,0,0,0,0,0,0,0,0,0,0,0,0,0,0,0,0,0,0,0,0,0,0,0,0,0,0,0,0,0,0,0,0,0,0,0,0,0,0,0,0,0,0,0,0,0,0,0,0,0,0,0,0,0,0.1817,0.1817,0,0.1825,0.1826,0.1826,0.1828,0.1828,0.1827,0.1827,0.1836,0.1836,0.1836,0,0,0,0,0,0,0,0,0,0,0,0,0,0.18,0.18,0.1817,0.1817,0.1817,0.1825,0.1826,0.1826,0.1828,0.1828,0.1827,0.1827,0.1836,0.1836,0.1836,0,0,0,0,0,0,0,0,0,0,0,0,0,0.1808,0.18,0.1817,0.1819,0.1819,0.1825,0.1826,0.1826,0.1828,0.1828,0.1827,0.1827,0.1836,0.1836,0.1836,0.1841,0,0,0.1838,0.1838,0,0,0,0,0,0,0,0,0.1807,0.1808,0.1818,0.1819,0.1819,0.1825,0.1823,0.1831,0.1828,0.1824,0.1827,0.1827,0.1832,0.1833,0.1835,0.1841,0.1842,0.1838,0.1838,0.1838,0.1838,0,0,0,0,0,0,0,0.1807,0.1808,0.182,0.1819,0.1819,0.1819,0.182,0.1824,0.1829,0.1825,0.1825,0.1826,0.1832,0.1834,0.1835,0.1842,0.1838,0.1838,0.1838,0.1839,0.1851,0.1851,0,0,0,0,0,0,0.1806,0.1807,0.182,0.182,0.1813,0.1819,0.182,0.1823,0.1829,0.1829,0.1826,0.1826,0.1834,0.1835,0.1835,0.184,0.1838,0.1839,0.1839,0.185,0.1851,0.1851,0,0,0,0,0,0,0.1805,0.1807,0.1819,0.1814,0.1816,0.182,0.1823,0.1824,0.1826,0.183,0.183,0.1827,0.1834,0.1835,0.1839,0.184,0.1839,0.1839,0.185,0.1851,0.1851,0.185,0,0,0,0,0,0,0.1805,0.1807,0.1809,0.1814,0.1816,0.1824,0.1823,0.1824,0.1826,0.1827,0.1831,0.1832,0.1834,0.1839,0.184,0.1841,0.1839,0.185,0.185,0.1851,0.185,0.185,0.185,0,0,0,0,0,0.1804,0.1809,0.1809,0.1811,0.1819,0.1824,0.1825,0.1827,0.1827,0.1828,0.1831,0.1832,0.184,0.1839,0.184,0.1842,0.185,0.185,0.1851,0.185,0.185,0.185,0,0,0,0,0,0,0.1804,0.181,0.181,0.1816,0.182,0.1824,0.1827,0.1828,0.1831,0.1831,0.1833,0.1834,0.1838,0.184,0.1839,0.1845,0.1845,0.1845,0.1844,0.1844,0.1844,0.1844,0.184,0,0,0,0,0,0.1805,0.1809,0.1813,0.1818,0.182,0.1823,0.1825,0.1827,0.183,0.1831,0.1834,0.1837,0.184,0.1842,0.1846,0.185,0.185,0.1852,0.1852,0.1852,0.1852,0.1853,0.1853,0.1851,0.1851,0.1851,0,0,0.1807,0.181,0.1812,0.1818,0.1821,0.1824,0.1824,0.1828,0.1831,0.1832,0.1836,0.1838,0.1841,0.1845,0.1847,0.1847,0.1853,0.1852,0.1852,0.1852,0.1853,0.1854,0.1854,0.1851,0.1851,0.1851,0,0,0.1811,0.1814,0.1818,0.1821,0.1825,0.1826,0.1827,0.1831,0.1833,0.1837,0.1838,0.184,0.1846,0.1848,0.1849,0.1853,0.1853,0.1853,0.1854,0.1855,0.1855,0.1856,0.1856,0.1856,0.1854,0.1854,0.1854,0,0.1813,0.1818,0.182,0.1824,0.1826,0.1827,0.183,0.1833,0.1837,0.1838,0.1838,0.1844,0.1847,0.1851,0.1851,0.1853,0.1853,0.1853,0.1855,0.1855,0.1856,0.1856,0.1856,0.1854,0.1854,0.1854,0.1854,0,0.1819,0.1823,0.1826,0.183,0.1832,0.1836,0.1837,0.1839,0.184,0.1842,0.1845,0.1847,0.1851,0.1852,0.1853,0.1855,0.1855,0.1855,0.1855,0.1856,0.1856,0.1856,0.1854,0.1854,0.1854,0.1854,0,0,0.1825,0.1829,0.183,0.1831,0.1835,0.1838,0.184,0.1843,0.1845,0.1847,0.1849,0.1853,0.1853,0.1855,0.1855,0.1856,0.1857,0.1856,0.1856,0.1856,0.1859,0.1859,0.1859,0.1858,0.1858,0.1858,0.1859,0,0.183,0.1836,0.1837,0.1841,0.1844,0.1844,0.1846,0.1848,0.1849,0.1851,0.1852,0.1855,0.1854,0.1855,0.1856,0.1857,0.1858,0.1857,0.1859,0.1859,0.1858,0.1859,0.186,0.1861,0.1859,0.1859,0.1859,0,0.1836,0.1839,0.1844,0.1845,0.1846,0.1849,0.1851,0.1853,0.1854,0.1855,0.1856,0.1856,0.1858,0.1857,0.1859,0.1859,0.1859,0.1859,0.1859,0.186,0.1859,0.1859,0.1861,0.1861,0.1859,0.1859,0.1859,0,0.1839,0.1844,0.1847,0.1848,0.185,0.1852,0.1852,0.1854,0.1855,0.1857,0.1857,0.1859,0.186,0.186,0.1861,0.186,0.1862,0.1862,0.1862,0.1862,0.1863,0.1863,0.1864,0.1863,0.1863,0.1863,0.1863,0,0.1845,0.1847,0.1848,0.185,0.1853,0.1853,0.1856,0.1856,0.1857,0.1859,0.1859,0.186,0.186,0.1861,0.1861,0.1862,0.1863,0.1863,0.1863,0.1863,0.1862,0.1863,0.1863,0.1863,0.1863,0.1863,0.1863,0,0.1849,0.185,0.1853,0.1854,0.1854,0.1856,0.1857,0.1858,0.1859,0.186,0.1861,0.1861,0.1862,0.1862,0.1863,0.1863,0.1864,0.1864,0.1864,0.1864,0.1864,0.1864,0.1866,0.1865,0.1865,0.1865,0.1865,0,0.1852,0.1854,0.1855,0.1856,0.1857,0.1858,0.1859,0.1859,0.186,0.1861,0.1862,0.1863,0.1864,0.1865,0.1865,0.1865,0.1865,0.1865,0.1865,0.1864,0.1864,0.1864,0.1864,0.1866,0.1866,0.1866,0.1866,0,0.1857,0.1857,0.1859,0.186,0.1861,0.1862,0.1862,0.1863,0.1863,0.1864,0.1864,0.1865,0.1865,0.1866,0.1866,0.1866,0.1865,0.1866,0.1866,0.1866,0.1865,0.1865,0.1864,0.1866,0.1866,0.1866,0.1866,0.1866,0.1861,0.1862,0.1863,0.1864,0.1864,0.1865,0.1865,0.1865,0.1866,0.1867,0.1866,0.1867,0.1867,0.1867,0.1867,0.1866,0.1866,0.1866,0.1866,0.1866,0.1866,0.1865,0.1867,0.1867,0.1867,0.1867,0.1867,0,0.1866,0.1866,0.1867,0.1867,0.1868,0.1867,0.1867,0.1868,0.1868,0.1868,0.1869,0.1869,0.1868,0.1868,0.1868,0.1867,0.1867,0.1867,0.1867,0.1867,0.1867,0.1867,0.1867,0.1867,0.1867,0.1867,0.1867,0.1867,0.1868,0.187,0.1869,0.1871,0.1871,0.1871,0.1871,0.1871,0.1871,0.1871,0.1871,0.187,0.187,0.1869,0.1868,0.1868,0.1868,0.1868,0.1867,0.1867,0.1867,0.1867,0.1867,0.1868,0.1868,0.1867,0.1867,0.1867]}]]